loading
|
Showing default

OPS 1117 (TRANSIT 12), 2119

Orbit data source: Space-Track

OPS 1117 (TRANSIT 12), 2119 is a payload satellite owned by USN BuWeps (US) in LEO that was launched on Sat, 26 Mar 1966 UTC via an SCOUT A launch vehicle from the Air Force Western Test Range (AFWTR). Payloads include a variety of satellites, spacecraft, and rockets equipped with specific instruments for various scientific and technological missions. These include communications satellites like Starlink; space stations such as the ISS; scientific satellites like the Hubble; Earth observation satellites from companies like Planet Labs, Umbra, and HawkEye 360; GPS; miniature CubeSats for education and research; and military/defense satellites.

Loading next visibility...
Loading greatness...
OPS 1117 (TRANSIT 12) details
Identifier
2119, 1966-024A
Orbit
LEO
Last TLE update1 day ago
Origin
Flag of USUSN BuWeps (US)
ManufacturerAPL
MissionDefense Navigation
Bus & MotorTRANSIT 5, Unknown motor
Mass51 kg wet, 51 kg dry
Launch date (UTC)
1966-03-26 (59 years ago)
Launch vehicle
SCOUT A
Launch site
Air Force Western Test Range (AFWTR)
Object type
Payload
Rocket body
Debris
Shape & HBROct Cyl + 4 Pan + 1 Rod, Unknown HBR
Radar Cross Section7.565 m², Large (>1 m²)

Expand to show TLE details & history

TLE from 1 day ago
0 OPS 1117 (TRANSIT 12)
1  2119U 66024A   24276.54532231  .00000709  00000-0  67314-3 0  9997
2  2119  89.6219 113.8923 0148233 124.9323 236.5872 13.75084463930064
Epoch: 2024-10-02T13:05Z
Definitive object data (Epoch: 2024-10-02T13:05:15.847Z)
Latitude
Longitude-94.16688°
Altitude1,045.564 km
Speed7.298 km/s
True Right ascension07h 35m 34s
True Declination0° 00' 00"
Sunlit
Object was in daylight at TLE epoch
Predictive object data (real-time)
Latitude-79.29808°
Longitude87.78427°
Altitude1,088.906 km
Speed7.267 km/s
Apparent Right ascension19h 03m 45s
Apparent Declination-61° 11' 19"
Sunlit
Object is in daylight
Predictive observer data (real-time)
Local Sidereal Time06:52:34
Azimuth183.706° SSW
Elevation-68.658°
Doppler factor1
Orbital elements
Apogee1,087.434 km
Perigee869.338 km
Semi-major axis7,356.523 km
Eccentricity0.0148233
Inclination89.6219°
RAAN113.8923°
Arg. of periapsis124.9323°
True anomaly235.18378°
Mean anomaly236.5872°
Eccentric anomaly235.88405°
Mean motion3.43981 °/min
BSTAR0.00067314
Period104.66 mins
No data available

OPS 1117 (TRANSIT 12) Visibility forecast

Observer location: 39.9160978°, -105.1181434

OPS 1117 (TRANSIT 12) is not visible in the next 10 days
Span
Click to sort rows by Start time (UTC) header in descending order
Start Az.
Max El. time (UTC)
Max El. Az.
Max El.
End time (UTC)
End Az.